Regional Weather Roundup
Issued by NWS Newport/Morehead, NC

Current Version | Previous Version | Text Only | Print | Product List | Glossary On
Versions: 1 2 3 4 5 6 7 8 9 10 11 12 13 14 15 16 17 18 19 20 21 22 23 24 25 26 27 28 29 30 31 32 33 34 35 36 37 38 39 40 41 42 43 44 45 46 47 48 49 50
000
ASUS42 KMHX 272125
RWRMHX
WEATHER ROUNDUP FOR EASTERN NORTH CAROLINA
NATIONAL WEATHER SERVICE NEWPORT/MOREHEAD CITY NC
400 PM EST MON FEB 27 2017

NOTE: "FAIR" INDICATES FEW OR NO CLOUDS BELOW 12,000 FEET
WITH NO SIGNIFICANT WEATHER AND/OR OBSTRUCTIONS TO VISIBILITY

NCZ015>017-031-032-045>047-102-103-272200-
NORTH COAST

CITY           SKY/WX    TMP DP  RH WIND       PRES   REMARKS
EDENTON        CLOUDY    67  46  45 S12       30.40R
ELIZABETH CITY MOSUNNY   62  41  46 E8        30.39F
KITTY HAWK     NOT AVBL
MANTEO         PTSUNNY   61  43  51 SE7       30.41R

$$

NCZ045>047-081-094-103-104-272200-
CENTRAL COAST

CITY           SKY/WX    TMP DP  RH WIND       PRES   REMARKS
FRISCO         PTSUNNY   68  50  52 SE14      30.38F

$$

NCZ095-097-098-100-101-272200-
SOUTHERN COAST

CITY           SKY/WX    TMP DP  RH WIND       PRES   REMARKS
BEAUFORT       CLOUDY    66  50  56 E6        30.37S
CEDAR ISLAND   NOT AVBL
JACKSONVILLE   CLOUDY    67  49  52 S8        30.37R
PINEY ISLAND   CLOUDY   N/A N/A N/A NE7       30.38F
WILMINGTON     CLOUDY    65  49  56 E6        30.37S


$$

NCZ011>013-027>030-043-044-078>080-089-090>093-098-272200-
COASTAL PLAIN

CITY           SKY/WX    TMP DP  RH WIND       PRES   REMARKS
AHOSKIE          N/A     64  28  25 S7        30.38S
CLINTON        PTSUNNY   67  47  49 S6        30.37F
ELIZABETHTOWN  MOSUNNY   67  48  50 S3        30.35F
GOLDSBORO      PTSUNNY   68  39  34 S5        30.35F
GREENVILLE     MOSUNNY   68  37  32 SW10      30.38S
HAVELOCK       NOT AVBL
KENANSVILLE    PTSUNNY   66  46  48 SE3       30.37S
KINSTON        PTSUNNY   68  43  40 S8        30.38R
NEW BERN       MOSUNNY   66  44  45 E8        30.39S
RICHLANDS      NOT AVBL
ROCKY MOUNT    SUNNY     66  29  24 S8        30.37F
WASHINGTON     MOSUNNY   64  41  42 S6        30.39R
WHITEVILLE     MOSUNNY   68  46  45 S6        30.35S

$$

AMZ130-135-150-152-154-156-158-170-250-252-270-ANZ085-086-088-633-658-670-272200-
MARINE OBSERVATIONS

STATION/POSITION TIME  TEMP    WIND        PRES    WAVE   SWELL
                       AIR SEA DIR/SP/G            HT/PER HT/PER
                 (UTC) (F)     (DEG/KT/KT) (MB)    (FT/S) (FT/S)
CHESAPEAKE LIGHT NOT AVBL
64 E VA BEACH    2050   52 51   60/  4/  4 1029.7    2/ 8   2/ 8
DUCK             2100   54 50  150/  5/  6 1028.8
2 E DUCK         2100      51                N/A     2/ 8
OREGON INLET     2100   54 54   50/  4/  6 1029.5
13E OREGON INLT  NOT AVBL
HATTERAS CG      2100   65 61  150/ 11/ 15 1028.6
DIAMOND BUOY     2050   65 71  140/ 14/ 17 1029.3    3/ 8   3/ 8
CAPE LOOKOUT     2100   60      30/  9/ 11 1028.3
BEAUFORT LAB     2100   64 61  120/  3/  6 1027.7
30 SE NEW RVR IN 2108   66     180/  6/ 10 1028.3
30 SE NEW RVR IN 2113      65                N/A     4/ 8
27 SE WRIGHTSVLE 2108   65 62  190/  4/  8 1027.2
5 SE WRIGHTSVLE  2108   59 58   50/  6/ 10 1028.2
225 S CAPE HAT   2050   68 70  110/ 14/ 16 1027.6    4/ 8   3/ 8
41 SE CHARLESTON 2050   69 69  130/ 10/ 12 1026.1    4/ 8   3/ 8

$$




USA.gov is the U.S. government's official web portal to all federal, state and local government web resources and services.